Location: Newark
(43.6583°N, 1.6617°E)
Time: 15:12:08
(UTC+00:00)

Tiros 1 - Pass Details

Date: 29 August 2019
Orbit: 630 x 664 km, 48.4° (Epoch: 23 September)

Event Time Altitude Azimuth Distance (km) Brightness Sun altitude
Rises 02:17:45 0° 294° (WNW) 2,924 - -27.7°
Reaches altitude 10° 02:20:04 10° 294° (WNW) 2,017 - -27.4°
Maximum altitude 02:24:43 88° 20° (NNE) 642 - -26.9°
Exits shadow 02:26:27 39° 113° (ESE) 960 8.1 -26.6°
Drops below altitude 10° 02:29:24 10° 114° (ESE) 2,029 9.9 -26.3°
Sets 02:31:44 0° 115° (ESE) 2,942 10.8 -26.0°
